York, NE

10:10 AM CDT on October 20, 2019 (GMT -0500)
York Municipal

Weather History for KJYR - August, 2019

Change the Weather History Date:

Thursday, August 22, 2019

  Actual Average Record
Temperature  
Mean Temperature 66 °F -  
Max Temperature 73 °F 86 °F 103 °F (1948)
Min Temperature 60 °F 63 °F 49 °F (1966)
Cooling Degree Days 2    
Growing Degree Days 16 (Base 50)    
Moisture  
Dew Point 65 °F    
Average Humidity 92    
Maximum Humidity 100    
Minimum Humidity 83    
Precipitation  
Precipitation 0.00 in - - ()
Sea Level Pressure  
Sea Level Pressure 30.04 in    
Wind  
Wind Speed 4 mph (ESE)    
Max Wind Speed 12 mph    
Max Gust Speed 16 mph    
Visibility 7 miles    
Events Fog , Thunderstorm    
Averages and records for this station are not official NWS values.
T = Trace of Precipitation, MM = Missing Value Source: NWS Daily Summary

Daily Weather History Graph

Daily Weather History Graph

Search for Another Location

Airport or City:

Astronomy

Aug. 22, 2019 Rise Set
Actual Time 6:47 AM CDT 8:18 PM CDT
Civil Twilight 6:18 AM CDT 8:47 PM CDT
Nautical Twilight 5:43 AM CDT 9:22 PM CDT
Astronomical Twilight 5:06 AM CDT 9:59 PM CDT
Moon No Moon Rise 1:26 PM CDT (8/22)
Length of Visible Light 14h 29m
Length of Day
13h 31m
Waning Gibbous, 59% of the Moon is Illuminated
Aug 22
Waning Gibbous
Aug 23
Last Quarter
Aug 30
New
Sep 5
First Quarter
Sep 13
Full

Hourly Weather History & Observations

Time (CDT) Temp. Dew Point Humidity Pressure Visibility Wind Dir Wind Speed Gust Speed Precip Events Conditions
12:00 AM 62.6 °F 62.6 °F 100% 30.09 in 10.0 mi Calm Calm - N/A   Clear
12:15 AM 62.6 °F 62.6 °F 100% 30.09 in 10.0 mi Calm Calm - N/A   Clear
12:35 AM 60.8 °F 60.8 °F 100% 30.09 in 7.0 mi NNE 5.8 mph - N/A   Clear
12:55 AM 62.6 °F 62.6 °F 100% 30.08 in 1.5 mi NE 6.9 mph - N/A   Overcast
1:15 AM 62.6 °F 62.6 °F 100% 30.07 in 0.2 mi NE 6.9 mph - N/A Fog Fog
1:35 AM 62.6 °F 62.6 °F 100% 30.07 in 0.8 mi ENE 5.8 mph - N/A   Overcast
1:55 AM 62.6 °F 62.6 °F 100% 30.06 in 6.0 mi ENE 6.9 mph - N/A   Scattered Clouds
2:15 AM 62.6 °F 62.6 °F 100% 30.06 in 10.0 mi ENE 5.8 mph - N/A   Clear
2:35 AM 62.6 °F 62.6 °F 100% 30.05 in 7.0 mi East 3.5 mph - N/A   Mostly Cloudy
2:55 AM 62.6 °F 62.6 °F 100% 30.05 in 5.0 mi Calm Calm - N/A   Overcast
3:15 AM 62.6 °F 62.6 °F 100% 30.05 in 4.0 mi East 3.5 mph - N/A   Overcast
3:35 AM 62.6 °F 62.6 °F 100% 30.05 in 1.8 mi East 4.6 mph - N/A   Overcast
3:55 AM 62.6 °F 62.6 °F 100% 30.05 in 0.8 mi East 5.8 mph - N/A   Overcast
4:35 AM 64.4 °F 64.4 °F 100% 30.05 in 1.8 mi East 8.1 mph - N/A   Overcast
4:55 AM 64.4 °F 64.4 °F 100% 30.05 in 4.0 mi ESE 8.1 mph - N/A   Overcast
5:20 AM 62.6 °F 62.6 °F 100% 30.04 in 5.0 mi Calm Calm - N/A   Overcast
5:35 AM 62.6 °F 62.6 °F 100% 30.04 in 6.0 mi Calm Calm - N/A   Overcast
5:55 AM 62.6 °F 62.6 °F 100% 30.05 in 8.0 mi Calm Calm - N/A   Overcast
6:15 AM 62.6 °F 62.6 °F 100% 30.05 in 10.0 mi Calm Calm - N/A   Overcast
6:35 AM 62.6 °F 62.6 °F 100% 30.05 in 6.0 mi Calm Calm - N/A   Overcast
6:55 AM 62.6 °F 62.6 °F 100% 30.06 in 3.0 mi Calm Calm - N/A   Overcast
7:15 AM 62.6 °F 62.6 °F 100% 30.06 in 0.5 mi Calm Calm - N/A Fog Fog
7:35 AM 64.4 °F 62.6 °F 94% 30.06 in 0.8 mi Calm Calm - N/A   Overcast
7:55 AM 64.4 °F 64.4 °F 100% 30.06 in 1.0 mi Calm Calm - N/A   Overcast
8:20 AM 64.4 °F 64.4 °F 100% 30.07 in 1.0 mi Calm Calm - N/A   Overcast
8:35 AM 64.4 °F 64.4 °F 100% 30.07 in 1.0 mi Calm Calm - N/A   Overcast
8:55 AM 64.4 °F 64.4 °F 100% 30.08 in 1.0 mi Calm Calm - N/A   Overcast
9:15 AM 64.4 °F 64.4 °F 100% 30.07 in 3.0 mi Calm Calm - N/A   Overcast
9:35 AM 64.4 °F 64.4 °F 100% 30.07 in 4.0 mi Calm Calm - N/A   Overcast
9:55 AM 64.4 °F 64.4 °F 100% 30.07 in 8.0 mi Calm Calm - N/A   Overcast
10:15 AM 66.2 °F 64.4 °F 94% 30.07 in 8.0 mi Calm Calm - N/A   Overcast
10:35 AM 66.2 °F 64.4 °F 94% 30.07 in 6.0 mi Calm Calm - N/A   Overcast
10:55 AM 66.2 °F 64.4 °F 94% 30.06 in 9.0 mi East 5.8 mph - N/A   Overcast
11:15 AM 66.2 °F 66.2 °F 100% 30.06 in 10.0 mi East 5.8 mph - N/A   Overcast
11:55 AM 68.0 °F 66.2 °F 94% 30.06 in 10.0 mi ESE 6.9 mph - N/A   Overcast
12:15 PM 68.0 °F 66.2 °F 94% 30.06 in 10.0 mi East 6.9 mph - N/A   Overcast
12:35 PM 68.0 °F 66.2 °F 94% 30.04 in 10.0 mi East 8.1 mph - N/A   Overcast
12:55 PM 69.8 °F 66.2 °F 88% 30.04 in 10.0 mi ESE 9.2 mph - N/A   Overcast
1:15 PM 69.8 °F 66.2 °F 88% 30.03 in 10.0 mi SE 9.2 mph - N/A   Overcast
1:35 PM 71.6 °F 66.2 °F 83% 30.03 in 10.0 mi SE 9.2 mph - N/A   Overcast
1:55 PM 71.6 °F 66.2 °F 83% 30.03 in 10.0 mi ESE 10.4 mph - N/A   Overcast
2:15 PM 71.6 °F 68.0 °F 88% 30.03 in 10.0 mi ESE 6.9 mph - N/A   Overcast
2:35 PM 71.6 °F 68.0 °F 88% 30.02 in 10.0 mi SE 8.1 mph - N/A   Overcast
2:55 PM 71.6 °F 66.2 °F 83% 30.03 in 10.0 mi SE 8.1 mph - N/A   Overcast
3:15 PM 71.6 °F 68.0 °F 88% 30.02 in 10.0 mi SE 8.1 mph - N/A   Overcast
3:40 PM 73.4 °F 68.0 °F 83% 30.01 in 10.0 mi ESE 6.9 mph - N/A   Overcast
3:55 PM 73.4 °F 68.0 °F 83% 30.01 in 10.0 mi East 9.2 mph - N/A   Overcast
4:15 PM 73.4 °F 68.0 °F 83% 30.01 in 10.0 mi ESE 9.2 mph - N/A   Overcast
4:35 PM 73.4 °F 68.0 °F 83% 30.01 in 10.0 mi ESE 10.4 mph - N/A   Overcast
4:55 PM 73.4 °F 68.0 °F 83% 30.00 in 10.0 mi ESE 9.2 mph - N/A   Overcast
5:15 PM 73.4 °F 68.0 °F 83% 29.99 in 10.0 mi East 6.9 mph - N/A   Overcast
5:35 PM 73.4 °F 68.0 °F 83% 29.99 in 10.0 mi ESE 8.1 mph - N/A   Overcast
5:55 PM 73.4 °F 68.0 °F 83% 29.98 in 10.0 mi ESE 10.4 mph - N/A   Mostly Cloudy
6:15 PM 73.4 °F 68.0 °F 83% 29.97 in 10.0 mi ESE 9.2 mph - N/A   Clear
6:35 PM 73.4 °F 68.0 °F 83% 29.98 in 10.0 mi ESE 6.9 mph - N/A   Partly Cloudy
6:55 PM 73.4 °F 68.0 °F 83% 29.98 in 10.0 mi ESE 5.8 mph - N/A   Overcast
7:15 PM 73.4 °F 68.0 °F 83% 29.97 in 10.0 mi ESE 8.1 mph - N/A   Overcast
7:35 PM 73.4 °F 68.0 °F 83% 29.97 in 10.0 mi East 8.1 mph - N/A   Scattered Clouds
7:55 PM 73.4 °F 68.0 °F 83% 29.97 in 10.0 mi East 6.9 mph - N/A   Mostly Cloudy
8:15 PM 71.6 °F 68.0 °F 88% 29.98 in 10.0 mi East 4.6 mph - N/A   Overcast
8:35 PM 71.6 °F 68.0 °F 88% 30.00 in 10.0 mi East 3.5 mph - N/A   Overcast
8:55 PM 71.6 °F 68.0 °F 88% 30.00 in 7.0 mi East 4.6 mph - N/A   Overcast
9:15 PM 71.6 °F 68.0 °F 88% 30.01 in 10.0 mi East 4.6 mph - N/A   Overcast
9:35 PM 71.6 °F 68.0 °F 88% 30.02 in 10.0 mi ESE 5.8 mph - N/A   Overcast
9:55 PM 69.8 °F 66.2 °F 88% 30.03 in 10.0 mi ESE 8.1 mph - N/A   Mostly Cloudy
10:15 PM 69.8 °F 66.2 °F 88% 30.03 in 10.0 mi ESE 6.9 mph - N/A   Mostly Cloudy
10:35 PM 69.8 °F 66.2 °F 88% 30.03 in 10.0 mi ESE 6.9 mph - N/A   Overcast
10:55 PM 69.8 °F 66.2 °F 88% 30.03 in 10.0 mi ESE 9.2 mph - N/A   Overcast
11:15 PM 69.8 °F 66.2 °F 88% 30.04 in 10.0 mi ESE 10.4 mph 16.1 mph N/A   Overcast
11:35 PM 69.8 °F 64.4 °F 83% 30.04 in 10.0 mi ESE 11.5 mph - N/A Thunderstorm Overcast
11:55 PM 69.8 °F 64.4 °F 83% 30.04 in 10.0 mi ESE 10.4 mph - N/A Thunderstorm Overcast